Bellingham, WA

4:09 AM PST on December 10, 2016 (GMT -0800)
Bellingham International

Weather History for KBLI - January, 2013

Change the Weather History Date:

Sunday, January 20, 2013

  Actual Average Record
Temperature  
Mean Temperature 34 °F 40 °F  
Max Temperature 43 °F 46 °F 61 °F (1981)
Min Temperature 24 °F 33 °F 13 °F (1954)
Degree Days  
Heating Degree Days 32 25  
Month to date heating degree days 523  
Cooling Degree Days 0 0  
Month to date cooling degree days 0  
Year to date cooling degree days 0  
Moisture  
Dew Point 30 °F    
Average Humidity 96    
Maximum Humidity 100    
Minimum Humidity 80    
Precipitation  
Precipitation 0.00 in 0.15 in 0.78 in (1972)
Month to date precipitation 3.09  
Year to date precipitation 3.09  
Sea Level Pressure  
Sea Level Pressure 30.38 in    
Wind  
Wind Speed 0 mph (NW)    
Max Wind Speed 5 mph    
Max Gust Speed -    
Visibility 2 miles    
Events Fog    
T = Trace of Precipitation, MM = Missing Value Source: NWS Daily Summary

Daily Weather History Graph

Daily Weather History Graph

Search for Another Location

Airport or City:

Trip Planner

Search our weather history database for the weather conditions in past years. The results will help you decide how hot, cold, wet, or windy it might be!

Date:

Astronomy

Jan. 20, 2013 Rise Set
Actual Time 7:53 AM PST 4:49 PM PST
Civil Twilight 7:18 AM PST 5:24 PM PST
Nautical Twilight 6:39 AM PST 6:03 PM PST
Astronomical Twilight 6:02 AM PST 6:41 PM PST
Moon 11:55 AM PST (1/20) 2:28 AM PST (1/20)
Length of Visible Light 10h 06m
Length of Day
8h 55m
Waxing Gibbous, 67% of the Moon is Illuminated
Jan 20
Waxing Gibbous
Jan 26
Full
Feb 3
Last Quarter
Feb 9
New
Feb 17
First Quarter

Hourly Weather History & Observations

Time (PST) Temp. Windchill Dew Point Humidity Pressure Visibility Wind Dir Wind Speed Gust Speed Precip Events Conditions
12:04 AM 30.2 °F - 28.4 °F 93% 30.39 in 0.8 mi Calm Calm - N/A   Mist
12:11 AM 30.2 °F - 26.6 °F 86% 30.38 in 0.5 mi Calm Calm - N/A Fog Light Freezing Fog
12:53 AM 28.9 °F - 27.0 °F 92% 30.41 in 0.8 mi Calm Calm - N/A   Mist
1:03 AM 28.4 °F - 28.4 °F 100% 30.38 in 1.2 mi Calm Calm - N/A   Scattered Clouds
1:11 AM 28.4 °F - 28.4 °F 100% 30.39 in 2.0 mi Calm Calm - N/A   Partly Cloudy
1:24 AM 28.4 °F - 28.4 °F 100% 30.39 in 1.0 mi Calm Calm - N/A   Clear
1:29 AM 28.4 °F - 28.4 °F 100% 30.39 in 0.5 mi Calm Calm - N/A Fog Light Freezing Fog
1:48 AM 28.4 °F - 28.4 °F 100% 30.39 in 1.0 mi Calm Calm - N/A   Clear
1:53 AM 28.0 °F - 27.0 °F 96% 30.43 in 2.5 mi Calm Calm - N/A   Clear
2:06 AM 28.4 °F - 26.6 °F 93% 30.40 in 0.8 mi Calm Calm - N/A   Clear
2:20 AM 26.6 °F - 26.6 °F 100% 30.40 in 2.0 mi Calm Calm - N/A   Clear
2:28 AM 26.6 °F - 26.6 °F 100% 30.40 in 4.0 mi Calm Calm - N/A   Clear
2:53 AM 28.0 °F - 27.0 °F 96% 30.43 in 4.0 mi Calm Calm - N/A   Clear
3:53 AM 27.0 °F - 27.0 °F 100% 30.42 in 5.0 mi Calm Calm - N/A   Clear
4:07 AM 26.6 °F - 26.6 °F 100% 30.39 in 1.8 mi Calm Calm - N/A   Clear
4:22 AM 26.6 °F - 26.6 °F 100% 30.39 in 3.0 mi Calm Calm - N/A   Clear
4:50 AM 26.6 °F - 24.8 °F 93% 30.38 in 5.0 mi Calm Calm - N/A   Scattered Clouds
4:53 AM 26.1 °F - 26.1 °F 100% 30.42 in 5.0 mi Calm Calm - N/A   Scattered Clouds
5:53 AM 27.0 °F - 26.1 °F 96% 30.41 in 4.0 mi Calm Calm - N/A   Clear
6:53 AM 26.1 °F - 24.1 °F 92% 30.41 in 8.0 mi Calm Calm - N/A   Clear
7:39 AM 26.6 °F - 24.8 °F 93% 30.38 in 4.0 mi Calm Calm - N/A   Scattered Clouds
7:44 AM 24.8 °F - 24.8 °F 100% 30.38 in 0.8 mi Calm Calm - N/A   Mostly Cloudy
7:53 AM 26.1 °F - 25.0 °F 96% 30.42 in 0.2 mi Calm Calm - N/A Fog Light Freezing Fog
8:00 AM 26.6 °F - 24.8 °F 93% 30.38 in 0.2 mi Calm Calm - N/A Fog Light Freezing Fog
8:30 AM 28.4 °F - 26.6 °F 93% 30.38 in 0.5 mi Calm Calm - N/A Fog Light Freezing Fog
8:53 AM 28.9 °F - 28.0 °F 96% 30.43 in 2.0 mi Calm Calm - N/A   Partly Cloudy
9:00 AM 28.4 °F - 28.4 °F 100% 30.39 in 1.0 mi Calm Calm - N/A   Partly Cloudy
9:08 AM 28.4 °F - 28.4 °F 100% 30.40 in 0.2 mi Calm Calm - N/A Fog Light Freezing Fog
9:36 AM 30.2 °F - 30.2 °F 100% 30.40 in 0.2 mi Calm Calm - N/A   Mist
9:39 AM 30.2 °F - 30.2 °F 100% 30.40 in 1.0 mi Calm Calm - N/A   Mist
9:46 AM 30.2 °F - 30.2 °F 100% 30.40 in 1.0 mi Calm Calm - N/A   Mist
9:53 AM 30.9 °F - 30.9 °F 100% 30.43 in 0.5 mi Calm Calm - N/A Fog Light Freezing Fog
10:03 AM 30.2 °F - 30.2 °F 100% 30.39 in 0.5 mi Calm Calm - N/A Fog Light Freezing Fog
10:13 AM 30.2 °F - 30.2 °F 100% 30.40 in 0.2 mi Calm Calm - N/A Fog Light Freezing Fog
10:27 AM 32.0 °F - 32.0 °F 100% 30.39 in 0.2 mi Calm Calm - N/A Fog Fog
10:46 AM 33.8 °F - 33.8 °F 100% 30.39 in 0.8 mi Calm Calm - N/A   Scattered Clouds
10:53 AM 33.1 °F - 33.1 °F 100% 30.43 in 0.8 mi Calm Calm - N/A   Scattered Clouds
10:55 AM 33.8 °F 30.8 °F 33.8 °F 100% 30.39 in 1.0 mi North 3.5 mph - N/A   Overcast
11:01 AM 33.8 °F - 33.8 °F 100% 30.39 in 2.0 mi Calm Calm - N/A   Scattered Clouds
11:10 AM 35.6 °F - 33.8 °F 93% 30.39 in 4.0 mi Calm Calm - N/A   Scattered Clouds
11:53 AM 37.0 °F 34.5 °F 35.1 °F 93% 30.41 in 7.0 mi North 3.5 mph - N/A   Partly Cloudy
12:53 PM 39.9 °F - 36.0 °F 86% 30.38 in 10.0 mi Calm Calm - N/A   Clear
1:53 PM 43.0 °F - 37.0 °F 80% 30.36 in 10.0 mi Calm Calm - N/A   Clear
2:53 PM 43.0 °F - 37.0 °F 80% 30.35 in 10.0 mi Calm Calm - N/A   Clear
3:53 PM 42.1 °F 40.2 °F 37.0 °F 82% 30.34 in 10.0 mi West 3.5 mph - N/A   Clear
4:53 PM 37.0 °F 33.3 °F 36.0 °F 96% 30.34 in 4.0 mi West 4.6 mph - N/A   Clear
5:17 PM 35.6 °F 31.7 °F 35.6 °F 100% 30.30 in 3.0 mi West 4.6 mph - N/A   Scattered Clouds
5:24 PM 35.6 °F 32.8 °F 33.8 °F 93% 30.30 in 0.5 mi WNW 3.5 mph - N/A Fog Fog
5:36 PM 35.6 °F 32.8 °F 33.8 °F 93% 30.30 in 0.5 mi West 3.5 mph - N/A Fog Fog
5:53 PM 34.0 °F 29.8 °F 34.0 °F 100% 30.33 in 0.2 mi WNW 4.6 mph - N/A Fog Fog
6:53 PM 33.1 °F - 33.1 °F 100% 30.32 in 0.2 mi Calm Calm - N/A Fog Fog
7:53 PM 34.0 °F - 33.1 °F 96% 30.32 in 0.2 mi Calm Calm - N/A Fog Fog
8:53 PM 33.1 °F - 33.1 °F 100% 30.32 in 0.1 mi Calm Calm - N/A Fog Fog
9:23 PM 33.8 °F - 33.8 °F 100% 30.30 in 0.2 mi Calm Calm - N/A Fog Fog
9:32 PM 33.8 °F - 33.8 °F 100% 30.30 in 0.2 mi Calm Calm - N/A Fog Fog
9:53 PM 33.1 °F - 32.0 °F 96% 30.33 in 0.1 mi Calm Calm - N/A Fog Fog
10:53 PM 33.1 °F 28.7 °F 33.1 °F 100% 30.32 in 0.2 mi North 4.6 mph - N/A Fog Fog
11:37 PM 32.0 °F - 32.0 °F 100% 30.29 in 0.2 mi Calm Calm - N/A Fog Fog
11:53 PM 32.0 °F 28.7 °F 30.9 °F 96% 30.32 in 0.2 mi North 3.5 mph - N/A Fog Fog